Back to catalog

THORAD AGENA D DEB

AliveSSO
NORAD 4920·DEBRIS·🇺🇸 United States

Launched Apr 8, 1970 from Vandenberg Space Force Base

Loading…

Next Passes (next 24 hours)

TLE

FreshSource: Space-Track

Epoch: Sep 14, 2026, 03:17 UTC

1 04920U 70025FS  26257.13710891  .00000365  00000-0  61659-3 0  9995
2 04920  99.4255 146.7855 0089496 143.6649  15.5339 13.50580351765573

Track THORAD AGENA D DEB in real time with AllMySat

Download on the App Store